KLM467 TXKF-LPHR

Flight info

Callsign KLM467
Flight time 3h 54m
Altitude 37000
Route BORNN1 BALOO DCT 35N060W 37N050W 38N040W DCT 38N030W DCT FATAG
Aircraft B739/M-SDE2E3FGHIRWXY/LB1

Departure

Time 2026-04-26 13:02
Airport L.F. Wade International Airport (TXKF)

Arrival

Time 2026-04-26 16:57
Airport Horta Airport (LPHR)
Time Latitude Longitude Altitude Speed Heading
2026-04-26 12:47 32.36092 -64.70100 4 ft 0 kts 169°
2026-04-26 12:56 32.36094 -64.70101 3 ft 3 kts 169°
2026-04-26 12:56 32.36119 -64.70109 5 ft 4 kts 154°
2026-04-26 12:57 32.36141 -64.70126 20 ft 4 kts 130°
2026-04-26 12:57 32.36152 -64.70150 -3 ft 4 kts 74°
2026-04-26 12:57 32.36150 -64.70157 -3 ft 0 kts 60°
2026-04-26 12:59 32.36198 -64.70089 3 ft 20 kts 38°
2026-04-26 12:59 32.36278 -64.70025 3 ft 14 kts 38°
2026-04-26 12:59 32.36341 -64.69942 3 ft 13 kts 59°
2026-04-26 13:00 32.36382 -64.69841 3 ft 14 kts 68°
2026-04-26 13:00 32.36422 -64.69726 4 ft 16 kts 68°
2026-04-26 13:00 32.36465 -64.69599 3 ft 17 kts 68°
2026-04-26 13:00 32.36513 -64.69469 3 ft 18 kts 66°
2026-04-26 13:01 32.36562 -64.69332 5 ft 19 kts 67°
2026-04-26 13:01 32.36615 -64.69137 3 ft 38 kts 87°
2026-04-26 13:01 32.36523 -64.68540 5 ft 110 kts 102°
2026-04-26 13:01 32.36318 -64.67390 5 ft 169 kts 102°
2026-04-26 13:02 32.36076 -64.65935 383 ft 193 kts 102°
2026-04-26 13:02 32.35814 -64.64287 871 ft 214 kts 102°
2026-04-26 13:02 32.35493 -64.62509 1561 ft 225 kts 102°
2026-04-26 13:02 32.35171 -64.60692 2325 ft 228 kts 102°
2026-04-26 13:03 32.34839 -64.58763 2570 ft 252 kts 101°
2026-04-26 13:03 32.34857 -64.56652 3063 ft 264 kts 69°
2026-04-26 13:03 32.35865 -64.54899 3826 ft 264 kts 43°
2026-04-26 13:03 32.37224 -64.53358 4605 ft 270 kts 41°
2026-04-26 13:04 32.38603 -64.51829 5386 ft 272 kts 41°
2026-04-26 13:04 32.39992 -64.50287 6165 ft 275 kts 41°
2026-04-26 13:04 32.41391 -64.48726 6910 ft 278 kts 41°
2026-04-26 13:04 32.42802 -64.47140 7590 ft 282 kts 42°
2026-04-26 13:05 32.44231 -64.45527 8296 ft 286 kts 42°
2026-04-26 13:05 32.45678 -64.43886 8982 ft 290 kts 43°
2026-04-26 13:05 32.47145 -64.42218 9675 ft 294 kts 43°
2026-04-26 13:05 32.48608 -64.40550 10323 ft 298 kts 43°
2026-04-26 13:06 32.50166 -64.38773 10573 ft 318 kts 43°
2026-04-26 13:06 32.51771 -64.36940 10760 ft 338 kts 43°
2026-04-26 13:06 32.53527 -64.34931 11084 ft 353 kts 43°
2026-04-26 13:06 32.55305 -64.32894 11619 ft 359 kts 43°
2026-04-26 13:07 32.57106 -64.30828 12263 ft 362 kts 43°
2026-04-26 13:07 32.58926 -64.28738 12881 ft 366 kts 43°
2026-04-26 13:07 32.60767 -64.26625 13488 ft 370 kts 43°
2026-04-26 13:07 32.62629 -64.24485 14065 ft 375 kts 43°
2026-04-26 13:08 32.64508 -64.22325 14621 ft 378 kts 43°
2026-04-26 13:08 32.66406 -64.20142 15178 ft 382 kts 43°
2026-04-26 13:08 32.68303 -64.17958 15715 ft 385 kts 42°
2026-04-26 13:08 32.70226 -64.15743 16254 ft 389 kts 42°
2026-04-26 13:09 32.72173 -64.13499 16820 ft 391 kts 42°
2026-04-26 13:09 32.74100 -64.11277 17345 ft 395 kts 42°
2026-04-26 13:09 32.76063 -64.09012 17854 ft 399 kts 42°
2026-04-26 13:09 32.78067 -64.06698 18365 ft 402 kts 42°
2026-04-26 13:10 32.80070 -64.04383 18808 ft 406 kts 42°
2026-04-26 13:10 32.82073 -64.02067 19223 ft 409 kts 42°
2026-04-26 13:10 32.84119 -63.99699 19681 ft 412 kts 42°
2026-04-26 13:10 32.86174 -63.97319 20143 ft 415 kts 42°
2026-04-26 13:11 32.88254 -63.94909 20590 ft 418 kts 42°
2026-04-26 13:11 32.90346 -63.92484 21023 ft 421 kts 42°
2026-04-26 13:11 32.92445 -63.90050 21486 ft 423 kts 42°
2026-04-26 13:11 32.94568 -63.87586 21892 ft 427 kts 42°
2026-04-26 13:12 32.96695 -63.85115 22297 ft 430 kts 42°
2026-04-26 13:12 32.98818 -63.82646 22701 ft 433 kts 42°
2026-04-26 13:12 33.00981 -63.80129 23106 ft 436 kts 42°
2026-04-26 13:12 33.03158 -63.77593 23501 ft 439 kts 42°
2026-04-26 13:13 33.05346 -63.75043 23864 ft 442 kts 42°
2026-04-26 13:13 33.07554 -63.72467 24210 ft 444 kts 43°
2026-04-26 13:13 33.09761 -63.69889 24589 ft 445 kts 43°
2026-04-26 13:13 33.11975 -63.67302 24964 ft 446 kts 43°
2026-04-26 13:14 33.14194 -63.64707 25318 ft 448 kts 43°
2026-04-26 13:14 33.16434 -63.62087 25666 ft 450 kts 43°
2026-04-26 13:14 33.18669 -63.59469 26020 ft 452 kts 43°
2026-04-26 13:14 33.20915 -63.56837 26369 ft 453 kts 43°
2026-04-26 13:15 33.23141 -63.54227 26699 ft 455 kts 43°
2026-04-26 13:15 33.25429 -63.51541 27030 ft 457 kts 43°
2026-04-26 13:15 33.27677 -63.48901 27362 ft 459 kts 43°
2026-04-26 13:15 33.29216 -63.47093 27548 ft 461 kts 43°
2026-04-26 13:16 33.32252 -63.43522 27939 ft 464 kts 43°
2026-04-26 13:16 33.34556 -63.40809 28275 ft 465 kts 43°
2026-04-26 13:16 33.36867 -63.38086 28613 ft 466 kts 43°
2026-04-26 13:16 33.39180 -63.35359 28914 ft 468 kts 43°
2026-04-26 13:17 33.43832 -63.29867 29505 ft 472 kts 43°
2026-04-26 13:17 33.46171 -63.27102 29805 ft 473 kts 43°
2026-04-26 13:18 33.50886 -63.21523 30316 ft 478 kts 42°
2026-04-26 13:18 33.53245 -63.18728 30600 ft 478 kts 42°
2026-04-26 13:18 33.57953 -63.13141 31327 ft 474 kts 42°
2026-04-26 13:19 33.60293 -63.10360 31658 ft 473 kts 42°
2026-04-26 13:19 33.62630 -63.07582 31967 ft 472 kts 42°
2026-04-26 13:19 33.64961 -63.04809 32245 ft 472 kts 41°
2026-04-26 13:19 33.67298 -63.02027 32488 ft 473 kts 41°
2026-04-26 13:20 33.69612 -62.99271 32744 ft 473 kts 41°
2026-04-26 13:20 33.71942 -62.96493 33043 ft 472 kts 41°
2026-04-26 13:20 33.74264 -62.93720 33351 ft 471 kts 41°
2026-04-26 13:20 33.76587 -62.90945 33625 ft 470 kts 41°
2026-04-26 13:21 33.78936 -62.88138 33863 ft 470 kts 41°
2026-04-26 13:21 33.80475 -62.86297 34031 ft 470 kts 41°
2026-04-26 13:21 33.83544 -62.82622 34363 ft 469 kts 41°
2026-04-26 13:21 33.85856 -62.79852 34510 ft 471 kts 41°
2026-04-26 13:22 33.88189 -62.77055 34655 ft 472 kts 41°
2026-04-26 13:22 33.90510 -62.74269 34867 ft 471 kts 41°
2026-04-26 13:22 33.92827 -62.71486 35082 ft 470 kts 41°
2026-04-26 13:22 33.95138 -62.68706 35266 ft 470 kts 41°
2026-04-26 13:23 33.97457 -62.65917 35414 ft 471 kts 41°
2026-04-26 13:23 33.99775 -62.63125 35588 ft 471 kts 41°
2026-04-26 13:23 34.02095 -62.60329 35783 ft 471 kts 40°
2026-04-26 13:23 34.04416 -62.57530 35902 ft 472 kts 40°
2026-04-26 13:24 34.06741 -62.54724 36036 ft 473 kts 40°
2026-04-26 13:24 34.09059 -62.51922 36212 ft 472 kts 41°
2026-04-26 13:24 34.11376 -62.49121 36418 ft 471 kts 41°
2026-04-26 13:24 34.13687 -62.46323 36578 ft 470 kts 41°
2026-04-26 13:25 34.16001 -62.43520 36695 ft 471 kts 41°
2026-04-26 13:25 34.18318 -62.40712 36825 ft 471 kts 41°
2026-04-26 13:25 34.20632 -62.37905 36961 ft 472 kts 40°
2026-04-26 13:26 34.25244 -62.32303 37149 ft 474 kts 40°
2026-04-26 13:26 34.29938 -62.26592 37153 ft 477 kts 40°
2026-04-26 13:27 34.34607 -62.20900 37159 ft 481 kts 41°
2026-04-26 13:27 34.39316 -62.15113 37156 ft 486 kts 44°
2026-04-26 13:27 34.41207 -62.11676 37145 ft 495 kts 64°
2026-04-26 13:28 34.42426 -62.07763 37173 ft 498 kts 68°
2026-04-26 13:28 34.44635 -61.99774 37155 ft 499 kts 69°
2026-04-26 13:29 34.46835 -61.91790 37141 ft 499 kts 69°
2026-04-26 13:29 34.49081 -61.83842 37139 ft 497 kts 68°
2026-04-26 13:30 34.51339 -61.75944 37154 ft 495 kts 68°
2026-04-26 13:30 34.53587 -61.68076 37149 ft 493 kts 68°
2026-04-26 13:31 34.55810 -61.60262 37153 ft 492 kts 68°
2026-04-26 13:31 34.58035 -61.52416 37147 ft 492 kts 68°
2026-04-26 13:32 34.60255 -61.44557 37149 ft 492 kts 68°
2026-04-26 13:32 34.62473 -61.36689 37163 ft 493 kts 68°
2026-04-26 13:33 34.64693 -61.28789 37152 ft 495 kts 68°
2026-04-26 13:33 34.66541 -61.22199 37152 ft 496 kts 68°
2026-04-26 13:34 34.68767 -61.14236 37148 ft 498 kts 68°
2026-04-26 13:34 34.70997 -61.06236 37145 ft 500 kts 68°
2026-04-26 13:35 34.73209 -60.98276 37141 ft 501 kts 68°
2026-04-26 13:35 34.75434 -60.90248 37139 ft 501 kts 68°
2026-04-26 13:36 34.77657 -60.82200 37137 ft 501 kts 68°
2026-04-26 13:36 34.79868 -60.74177 37132 ft 499 kts 68°
2026-04-26 13:37 34.82068 -60.66167 37139 ft 498 kts 68°
2026-04-26 13:37 34.84254 -60.58186 37136 ft 496 kts 68°
2026-04-26 13:38 34.86433 -60.50207 37141 ft 496 kts 68°
2026-04-26 13:38 34.88601 -60.42248 37139 ft 495 kts 68°
2026-04-26 13:39 34.90767 -60.34274 37131 ft 496 kts 68°
2026-04-26 13:39 34.92932 -60.26278 37131 ft 497 kts 68°
2026-04-26 13:40 34.95080 -60.18321 37127 ft 498 kts 68°
2026-04-26 13:40 34.97239 -60.10297 37153 ft 499 kts 68°
2026-04-26 13:41 34.99403 -60.02238 37137 ft 500 kts 68°
2026-04-26 13:41 35.01512 -59.94120 37129 ft 502 kts 70°
2026-04-26 13:42 35.03513 -59.85923 37125 ft 503 kts 70°
2026-04-26 13:42 35.05496 -59.77727 37120 ft 504 kts 70°
2026-04-26 13:43 35.07478 -59.69576 37121 ft 504 kts 70°
2026-04-26 13:43 35.09475 -59.61382 37124 ft 504 kts 70°
2026-04-26 13:44 35.11471 -59.53180 37123 ft 504 kts 70°
2026-04-26 13:44 35.13460 -59.44974 37115 ft 503 kts 70°
2026-04-26 13:45 35.15443 -59.36767 37120 ft 503 kts 70°
2026-04-26 13:45 35.17414 -59.28579 37110 ft 502 kts 70°
2026-04-26 13:46 35.19382 -59.20377 37109 ft 503 kts 70°
2026-04-26 13:46 35.21344 -59.12174 37111 ft 503 kts 70°
2026-04-26 13:47 35.23301 -59.03964 37115 ft 503 kts 70°
2026-04-26 13:47 35.25253 -58.95746 37117 ft 503 kts 70°
2026-04-26 13:48 35.27203 -58.87510 37111 ft 503 kts 70°
2026-04-26 13:48 35.29148 -58.79273 37110 ft 505 kts 70°
2026-04-26 13:49 35.31092 -58.71006 37114 ft 505 kts 70°
2026-04-26 13:49 35.33032 -58.62732 37108 ft 506 kts 70°
2026-04-26 13:50 35.34972 -58.54425 37106 ft 507 kts 70°
2026-04-26 13:50 35.36905 -58.46122 37107 ft 507 kts 70°
2026-04-26 13:51 35.38822 -58.37859 37106 ft 509 kts 70°
2026-04-26 13:51 35.40753 -58.29508 37110 ft 509 kts 70°
2026-04-26 13:52 35.42679 -58.21153 37099 ft 509 kts 70°
2026-04-26 13:52 35.44598 -58.12795 37099 ft 509 kts 70°
2026-04-26 13:53 35.46511 -58.04433 37103 ft 509 kts 70°
2026-04-26 13:53 35.48418 -57.96068 37097 ft 509 kts 70°
2026-04-26 13:54 35.50319 -57.87704 37103 ft 509 kts 70°
2026-04-26 13:54 35.52220 -57.79311 37095 ft 509 kts 70°
2026-04-26 13:55 35.54735 -57.68155 37088 ft 509 kts 70°
2026-04-26 13:56 35.57867 -57.54197 37091 ft 510 kts 70°
2026-04-26 13:56 35.59746 -57.45779 37085 ft 511 kts 70°
2026-04-26 13:57 35.61621 -57.37349 37083 ft 511 kts 70°
2026-04-26 13:57 35.63492 -57.28910 37087 ft 512 kts 70°
2026-04-26 13:58 35.65359 -57.20454 37125 ft 513 kts 70°
2026-04-26 13:58 35.67224 -57.11982 37091 ft 514 kts 70°
2026-04-26 13:59 35.69089 -57.03474 37071 ft 515 kts 70°
2026-04-26 13:59 35.70950 -56.94952 37077 ft 515 kts 70°
2026-04-26 14:00 35.74653 -56.77904 37065 ft 516 kts 70°
2026-04-26 14:01 35.76495 -56.69377 37079 ft 516 kts 70°
2026-04-26 14:01 35.78322 -56.60886 37062 ft 516 kts 70°
2026-04-26 14:02 35.80156 -56.52332 37068 ft 515 kts 70°
2026-04-26 14:02 35.81981 -56.43787 37071 ft 515 kts 70°
2026-04-26 14:03 35.83799 -56.35245 37071 ft 515 kts 70°
2026-04-26 14:03 35.85612 -56.26693 37070 ft 516 kts 70°
2026-04-26 14:04 35.87420 -56.18131 37066 ft 516 kts 70°
2026-04-26 14:04 35.89212 -56.09615 37064 ft 516 kts 70°
2026-04-26 14:05 35.91006 -56.01053 37090 ft 516 kts 70°
2026-04-26 14:05 35.92801 -55.92457 37061 ft 518 kts 70°
2026-04-26 14:06 35.94594 -55.83837 37056 ft 518 kts 71°
2026-04-26 14:06 35.96379 -55.75219 37049 ft 519 kts 71°
2026-04-26 14:07 35.98166 -55.66560 37049 ft 520 kts 71°
2026-04-26 14:07 35.99944 -55.57911 37057 ft 521 kts 71°
2026-04-26 14:08 36.01723 -55.49220 37052 ft 522 kts 71°
2026-04-26 14:08 36.03484 -55.40581 37048 ft 522 kts 71°
2026-04-26 14:09 36.05265 -55.31814 37043 ft 523 kts 71°
2026-04-26 14:09 36.07019 -55.23141 37085 ft 523 kts 70°
2026-04-26 14:10 36.08780 -55.14402 37041 ft 525 kts 71°
2026-04-26 14:10 36.10539 -55.05635 37040 ft 525 kts 71°
2026-04-26 14:11 36.13165 -54.92480 37032 ft 525 kts 71°
2026-04-26 14:11 36.14909 -54.83694 37073 ft 525 kts 71°
2026-04-26 14:12 36.16645 -54.74919 37018 ft 526 kts 71°
2026-04-26 14:12 36.18377 -54.66124 37022 ft 526 kts 71°
2026-04-26 14:13 36.20964 -54.52921 37020 ft 525 kts 71°
2026-04-26 14:14 36.22668 -54.44181 37042 ft 526 kts 71°
2026-04-26 14:14 36.24389 -54.35318 37024 ft 526 kts 71°
2026-04-26 14:15 36.26089 -54.26520 37015 ft 526 kts 71°
2026-04-26 14:15 36.27788 -54.17691 37012 ft 526 kts 71°
2026-04-26 14:16 36.29481 -54.08857 37053 ft 526 kts 71°
2026-04-26 14:16 36.31158 -54.00070 37017 ft 528 kts 71°
2026-04-26 14:17 36.32841 -53.91213 36997 ft 528 kts 71°
2026-04-26 14:17 36.34518 -53.82348 37002 ft 528 kts 71°
2026-04-26 14:18 36.36187 -53.73488 36994 ft 528 kts 71°
2026-04-26 14:18 36.37571 -53.66113 37002 ft 529 kts 71°
2026-04-26 14:19 36.39225 -53.57262 37001 ft 528 kts 71°
2026-04-26 14:19 36.40879 -53.48374 36988 ft 528 kts 71°
2026-04-26 14:20 36.42524 -53.39492 36991 ft 527 kts 71°
2026-04-26 14:20 36.44155 -53.30646 37000 ft 527 kts 71°
2026-04-26 14:21 36.45791 -53.21738 36987 ft 526 kts 71°
2026-04-26 14:21 36.47411 -53.12874 36979 ft 526 kts 71°
2026-04-26 14:22 36.49019 -53.04033 36979 ft 525 kts 71°
2026-04-26 14:22 36.50623 -52.95182 36972 ft 524 kts 72°
2026-04-26 14:23 36.52217 -52.86344 36975 ft 524 kts 72°
2026-04-26 14:23 36.53805 -52.77498 36976 ft 524 kts 72°
2026-04-26 14:24 36.55373 -52.68731 36975 ft 525 kts 72°
2026-04-26 14:24 36.56645 -52.61585 37027 ft 526 kts 72°
2026-04-26 14:25 36.58054 -52.53636 36971 ft 527 kts 72°
2026-04-26 14:25 36.59648 -52.44609 36966 ft 528 kts 72°
2026-04-26 14:26 36.61174 -52.35924 36972 ft 528 kts 72°
2026-04-26 14:26 36.62671 -52.27365 36969 ft 529 kts 73°
2026-04-26 14:27 36.64151 -52.18866 36964 ft 529 kts 73°
2026-04-26 14:27 36.65698 -52.09939 36967 ft 529 kts 73°
2026-04-26 14:28 36.67253 -52.00926 36961 ft 528 kts 73°
2026-04-26 14:28 36.68790 -51.91973 36951 ft 528 kts 73°
2026-04-26 14:29 36.70316 -51.83045 36952 ft 527 kts 73°
2026-04-26 14:29 36.71836 -51.74105 36956 ft 527 kts 73°
2026-04-26 14:30 36.73347 -51.65178 36948 ft 526 kts 73°
2026-04-26 14:30 36.74849 -51.56260 36926 ft 525 kts 73°
2026-04-26 14:31 36.76345 -51.47338 36949 ft 526 kts 73°
2026-04-26 14:31 36.77833 -51.38423 36953 ft 526 kts 74°
2026-04-26 14:32 36.79315 -51.29495 36941 ft 526 kts 74°
2026-04-26 14:32 36.80793 -51.20546 36981 ft 526 kts 74°
2026-04-26 14:33 36.82268 -51.11579 36942 ft 528 kts 74°
2026-04-26 14:33 36.83735 -51.02607 36941 ft 528 kts 74°
2026-04-26 14:34 36.85203 -50.93589 36940 ft 529 kts 74°
2026-04-26 14:34 36.86661 -50.84583 36964 ft 529 kts 75°
2026-04-26 14:35 36.88117 -50.75550 36937 ft 530 kts 75°
2026-04-26 14:35 36.89564 -50.66520 36932 ft 530 kts 75°
2026-04-26 14:36 36.91007 -50.57476 36919 ft 530 kts 75°
2026-04-26 14:36 36.92440 -50.48439 36942 ft 531 kts 75°
2026-04-26 14:37 36.93870 -50.39382 36921 ft 531 kts 75°
2026-04-26 14:37 36.95291 -50.30331 36923 ft 531 kts 75°
2026-04-26 14:38 36.96696 -50.21339 36922 ft 530 kts 75°
2026-04-26 14:38 36.98105 -50.12274 36925 ft 531 kts 75°
2026-04-26 14:39 36.99506 -50.03216 36921 ft 531 kts 75°
2026-04-26 14:39 37.00877 -49.94124 36899 ft 531 kts 76°
2026-04-26 14:40 37.02170 -49.85024 36914 ft 531 kts 77°
2026-04-26 14:40 37.03448 -49.75910 36917 ft 532 kts 77°
2026-04-26 14:41 37.04730 -49.66791 36903 ft 532 kts 77°
2026-04-26 14:41 37.06011 -49.57670 36913 ft 531 kts 77°
2026-04-26 14:42 37.07285 -49.48560 36903 ft 532 kts 77°
2026-04-26 14:42 37.08553 -49.39434 36913 ft 532 kts 77°
2026-04-26 14:43 37.09815 -49.30300 36879 ft 532 kts 77°
2026-04-26 14:43 37.11059 -49.21238 36904 ft 532 kts 78°
2026-04-26 14:44 37.12308 -49.12082 36912 ft 533 kts 77°
2026-04-26 14:44 37.13552 -49.02915 36915 ft 534 kts 78°
2026-04-26 14:45 37.14790 -48.93737 36865 ft 534 kts 78°
2026-04-26 14:45 37.16019 -48.84570 36891 ft 533 kts 78°
2026-04-26 14:46 37.17241 -48.75392 36891 ft 534 kts 78°
2026-04-26 14:46 37.18459 -48.66199 36897 ft 533 kts 78°
2026-04-26 14:47 37.19666 -48.57026 36897 ft 533 kts 78°
2026-04-26 14:47 37.20866 -48.47850 36909 ft 533 kts 78°
2026-04-26 14:48 37.22060 -48.38657 36897 ft 533 kts 78°
2026-04-26 14:48 37.23245 -48.29481 36888 ft 533 kts 78°
2026-04-26 14:49 37.24424 -48.20300 36886 ft 532 kts 78°
2026-04-26 14:49 37.25595 -48.11120 36890 ft 532 kts 79°
2026-04-26 14:50 37.26757 -48.01947 36888 ft 532 kts 79°
2026-04-26 14:50 37.27905 -47.92828 36865 ft 531 kts 79°
2026-04-26 14:51 37.29051 -47.83671 36876 ft 531 kts 79°
2026-04-26 14:51 37.30190 -47.74505 36884 ft 531 kts 79°
2026-04-26 14:52 37.31331 -47.65268 36875 ft 531 kts 79°
2026-04-26 14:52 37.32446 -47.56181 36876 ft 531 kts 79°
2026-04-26 14:53 37.33561 -47.47025 36890 ft 531 kts 80°
2026-04-26 14:53 37.34671 -47.37864 36864 ft 530 kts 80°
2026-04-26 14:54 37.35772 -47.28707 36865 ft 530 kts 80°
2026-04-26 14:54 37.36869 -47.19521 36874 ft 531 kts 80°
2026-04-26 14:55 37.37959 -47.10334 36874 ft 532 kts 80°
2026-04-26 14:55 37.39042 -47.01146 36870 ft 532 kts 81°
2026-04-26 14:56 37.40121 -46.91923 36855 ft 532 kts 81°
2026-04-26 14:56 37.41191 -46.82715 36855 ft 532 kts 81°
2026-04-26 14:57 37.42253 -46.73514 36864 ft 532 kts 81°
2026-04-26 14:57 37.43309 -46.64304 36859 ft 532 kts 81°
2026-04-26 14:58 37.44356 -46.55096 36855 ft 531 kts 81°
2026-04-26 14:58 37.45396 -46.45892 36877 ft 531 kts 81°
2026-04-26 14:59 37.46421 -46.36757 36847 ft 530 kts 82°
2026-04-26 14:59 37.47445 -46.27565 36851 ft 529 kts 82°
2026-04-26 15:00 37.48458 -46.18403 36857 ft 529 kts 82°
2026-04-26 15:00 37.49466 -46.09222 36861 ft 529 kts 82°
2026-04-26 15:01 37.50466 -46.00047 36863 ft 529 kts 82°
2026-04-26 15:01 37.51298 -45.92357 36858 ft 529 kts 82°
2026-04-26 15:02 37.52285 -45.83177 36847 ft 529 kts 82°
2026-04-26 15:02 37.53267 -45.73973 36869 ft 530 kts 82°
2026-04-26 15:03 37.54238 -45.64800 36863 ft 531 kts 82°
2026-04-26 15:03 37.55208 -45.55569 36856 ft 532 kts 82°
2026-04-26 15:04 37.56173 -45.46319 36856 ft 532 kts 82°
2026-04-26 15:04 37.57130 -45.37070 36861 ft 532 kts 83°
2026-04-26 15:05 37.58080 -45.27815 36851 ft 532 kts 83°
2026-04-26 15:05 37.59022 -45.18567 36858 ft 531 kts 83°
2026-04-26 15:06 37.59956 -45.09327 36859 ft 531 kts 83°
2026-04-26 15:06 37.60880 -45.00108 36852 ft 530 kts 83°
2026-04-26 15:07 37.62247 -44.86331 36855 ft 529 kts 83°
2026-04-26 15:07 37.63153 -44.77118 36849 ft 528 kts 83°
2026-04-26 15:08 37.64047 -44.67935 36848 ft 528 kts 84°
2026-04-26 15:08 37.64937 -44.58727 36843 ft 528 kts 84°
2026-04-26 15:09 37.65818 -44.49534 36842 ft 527 kts 84°
2026-04-26 15:09 37.66693 -44.40338 36855 ft 527 kts 84°
2026-04-26 15:10 37.67413 -44.32704 36845 ft 527 kts 84°
2026-04-26 15:10 37.68417 -44.21969 36836 ft 526 kts 84°
2026-04-26 15:11 37.69267 -44.12788 36837 ft 526 kts 84°
2026-04-26 15:11 37.70111 -44.03604 36853 ft 527 kts 85°
2026-04-26 15:12 37.70943 -43.94463 36837 ft 527 kts 85°
2026-04-26 15:12 37.71775 -43.85252 36830 ft 527 kts 85°
2026-04-26 15:13 37.72598 -43.76051 36801 ft 527 kts 85°
2026-04-26 15:13 37.73414 -43.66858 36830 ft 527 kts 85°
2026-04-26 15:14 37.74222 -43.57659 36831 ft 526 kts 85°
2026-04-26 15:14 37.75023 -43.48463 36825 ft 526 kts 85°
2026-04-26 15:15 37.75815 -43.39279 36827 ft 526 kts 85°
2026-04-26 15:15 37.76601 -43.30084 36820 ft 526 kts 86°
2026-04-26 15:16 37.77380 -43.20893 36818 ft 525 kts 86°
2026-04-26 15:16 37.78151 -43.11707 36816 ft 524 kts 86°
2026-04-26 15:17 37.78784 -43.04098 36818 ft 524 kts 86°
2026-04-26 15:17 37.79661 -42.93459 36819 ft 523 kts 86°
2026-04-26 15:18 37.80405 -42.84329 36811 ft 522 kts 86°
2026-04-26 15:18 37.81141 -42.75208 36814 ft 521 kts 86°
2026-04-26 15:19 37.81870 -42.66100 36811 ft 519 kts 86°
2026-04-26 15:19 37.82590 -42.57006 36803 ft 520 kts 86°
2026-04-26 15:20 37.83303 -42.47906 36815 ft 520 kts 86°
2026-04-26 15:20 37.84011 -42.38786 36815 ft 521 kts 87°
2026-04-26 15:21 37.84712 -42.29660 36825 ft 522 kts 87°
2026-04-26 15:21 37.85409 -42.20492 36813 ft 523 kts 87°
2026-04-26 15:22 37.86099 -42.11318 36804 ft 523 kts 87°
2026-04-26 15:22 37.86782 -42.02154 36803 ft 524 kts 88°
2026-04-26 15:23 37.87454 -41.93028 36815 ft 524 kts 88°
2026-04-26 15:23 37.88123 -41.83844 36800 ft 524 kts 88°
2026-04-26 15:24 37.88785 -41.74664 36803 ft 523 kts 88°
2026-04-26 15:24 37.89441 -41.65478 36801 ft 523 kts 88°
2026-04-26 15:25 37.89983 -41.57806 36803 ft 521 kts 89°
2026-04-26 15:25 37.90724 -41.47187 36798 ft 520 kts 89°
2026-04-26 15:26 37.91353 -41.38060 36801 ft 520 kts 89°
2026-04-26 15:26 37.91973 -41.28953 36801 ft 519 kts 89°
2026-04-26 15:27 37.92587 -41.19841 36805 ft 518 kts 89°
2026-04-26 15:27 37.93193 -41.10754 36755 ft 518 kts 90°
2026-04-26 15:28 37.93791 -41.01675 36799 ft 517 kts 90°
2026-04-26 15:28 37.94381 -40.92590 36808 ft 517 kts 90°
2026-04-26 15:29 37.94964 -40.83509 36811 ft 518 kts 90°
2026-04-26 15:30 37.96110 -40.65343 36807 ft 520 kts 90°
2026-04-26 15:30 37.96676 -40.56204 36766 ft 520 kts 91°
2026-04-26 15:31 37.97513 -40.42481 36797 ft 521 kts 91°
2026-04-26 15:32 37.98243 -40.30281 36806 ft 522 kts 91°
2026-04-26 15:32 37.98875 -40.19540 36796 ft 522 kts 91°
2026-04-26 15:33 37.99408 -40.10354 36806 ft 522 kts 91°
2026-04-26 15:33 37.99935 -40.01167 36773 ft 521 kts 91°
2026-04-26 15:34 38.00384 -39.92069 36799 ft 519 kts 93°
2026-04-26 15:34 38.00741 -39.82934 36793 ft 518 kts 93°
2026-04-26 15:35 38.01088 -39.73818 36802 ft 517 kts 93°
2026-04-26 15:35 38.01443 -39.64705 36811 ft 516 kts 93°
2026-04-26 15:36 38.01798 -39.55617 36813 ft 515 kts 93°
2026-04-26 15:36 38.02147 -39.46542 36792 ft 514 kts 94°
2026-04-26 15:37 38.02487 -39.37511 36800 ft 513 kts 94°
2026-04-26 15:37 38.02817 -39.28526 36817 ft 512 kts 94°
2026-04-26 15:38 38.03141 -39.19496 36819 ft 512 kts 94°
2026-04-26 15:38 38.03458 -39.10474 36819 ft 512 kts 94°
2026-04-26 15:39 38.03769 -39.01448 36822 ft 513 kts 94°
2026-04-26 15:39 38.03973 -38.95402 36814 ft 512 kts 94°
2026-04-26 15:40 38.04370 -38.83382 36826 ft 512 kts 94°
2026-04-26 15:40 38.04661 -38.74344 36813 ft 513 kts 94°
2026-04-26 15:41 38.04944 -38.65302 36829 ft 512 kts 94°
2026-04-26 15:41 38.05221 -38.56274 36836 ft 512 kts 94°
2026-04-26 15:42 38.05491 -38.47232 36838 ft 512 kts 94°
2026-04-26 15:42 38.05753 -38.38203 36835 ft 512 kts 94°
2026-04-26 15:43 38.06008 -38.29183 36838 ft 512 kts 94°
2026-04-26 15:44 38.06377 -38.15696 36838 ft 512 kts 95°
2026-04-26 15:44 38.06732 -38.02157 36849 ft 511 kts 95°
2026-04-26 15:45 38.07071 -37.88630 36868 ft 511 kts 95°
2026-04-26 15:46 38.07393 -37.75071 36856 ft 514 kts 95°
2026-04-26 15:46 38.07533 -37.69034 36839 ft 513 kts 95°
2026-04-26 15:47 38.07868 -37.53998 36867 ft 511 kts 95°
2026-04-26 15:48 38.08059 -37.44987 36870 ft 509 kts 95°
2026-04-26 15:48 38.08242 -37.36015 36887 ft 507 kts 95°
2026-04-26 15:49 38.08417 -37.27068 36889 ft 507 kts 95°
2026-04-26 15:49 38.08586 -37.18100 36888 ft 508 kts 95°
2026-04-26 15:50 38.08747 -37.09146 36903 ft 508 kts 95°
2026-04-26 15:50 38.08903 -37.00165 36907 ft 509 kts 95°
2026-04-26 15:51 38.09052 -36.91174 36909 ft 510 kts 95°
2026-04-26 15:51 38.09195 -36.82165 36909 ft 510 kts 94°
2026-04-26 15:52 38.09331 -36.73143 36899 ft 510 kts 94°
2026-04-26 15:52 38.09460 -36.64143 36914 ft 510 kts 95°
2026-04-26 15:53 38.09581 -36.55216 36923 ft 508 kts 95°
2026-04-26 15:53 38.09697 -36.46204 36915 ft 506 kts 95°
2026-04-26 15:54 38.09804 -36.37290 36934 ft 504 kts 95°
2026-04-26 15:54 38.09904 -36.28394 36937 ft 502 kts 95°
2026-04-26 15:55 38.09997 -36.19608 36933 ft 500 kts 95°
2026-04-26 15:55 38.10083 -36.10782 36946 ft 499 kts 95°
2026-04-26 15:56 38.10162 -36.01990 36951 ft 498 kts 95°
2026-04-26 15:56 38.10206 -35.96705 36942 ft 497 kts 95°
2026-04-26 15:57 38.10274 -35.87974 36962 ft 497 kts 95°
2026-04-26 15:57 38.10336 -35.79216 36966 ft 496 kts 95°
2026-04-26 15:58 38.10391 -35.70445 36970 ft 496 kts 95°
2026-04-26 15:58 38.10440 -35.61689 36968 ft 496 kts 95°
2026-04-26 15:59 38.10482 -35.52935 36976 ft 496 kts 95°
2026-04-26 15:59 38.10518 -35.44186 36979 ft 495 kts 94°
2026-04-26 16:00 38.10548 -35.35440 36983 ft 495 kts 95°
2026-04-26 16:00 38.10571 -35.26696 36984 ft 495 kts 95°
2026-04-26 16:01 38.10587 -35.18002 36984 ft 494 kts 94°
2026-04-26 16:01 38.10598 -35.09274 36988 ft 494 kts 94°
2026-04-26 16:02 38.10601 -35.00538 36999 ft 494 kts 94°
2026-04-26 16:02 38.10598 -34.91902 37010 ft 493 kts 94°
2026-04-26 16:03 38.10589 -34.83117 37010 ft 493 kts 94°
2026-04-26 16:03 38.10574 -34.74414 37014 ft 492 kts 94°
2026-04-26 16:04 38.10551 -34.65728 37021 ft 492 kts 94°
2026-04-26 16:04 38.10523 -34.57056 37018 ft 491 kts 94°
2026-04-26 16:05 38.10488 -34.48386 37028 ft 490 kts 94°
2026-04-26 16:05 38.10447 -34.39739 37039 ft 489 kts 93°
2026-04-26 16:06 38.10400 -34.31106 37030 ft 489 kts 94°
2026-04-26 16:06 38.10346 -34.22480 37045 ft 488 kts 94°
2026-04-26 16:07 38.10287 -34.13928 37037 ft 487 kts 93°
2026-04-26 16:07 38.10221 -34.05327 37023 ft 487 kts 93°
2026-04-26 16:08 38.10149 -33.96729 37049 ft 486 kts 93°
2026-04-26 16:08 38.10071 -33.88157 37059 ft 486 kts 93°
2026-04-26 16:09 38.09986 -33.79562 37055 ft 487 kts 93°
2026-04-26 16:09 38.09895 -33.70967 37056 ft 487 kts 94°
2026-04-26 16:10 38.09798 -33.62353 37060 ft 487 kts 93°
2026-04-26 16:10 38.09694 -33.53743 37062 ft 488 kts 93°
2026-04-26 16:11 38.09585 -33.45181 37048 ft 488 kts 93°
2026-04-26 16:11 38.09468 -33.36512 37070 ft 488 kts 93°
2026-04-26 16:12 38.09346 -33.27949 37070 ft 488 kts 93°
2026-04-26 16:12 38.09151 -33.15024 37073 ft 488 kts 93°
2026-04-26 16:13 38.09013 -33.06406 37078 ft 488 kts 93°
2026-04-26 16:13 38.08868 -32.97791 37078 ft 487 kts 93°
2026-04-26 16:14 38.08718 -32.89217 37080 ft 486 kts 93°
2026-04-26 16:15 38.08482 -32.76384 37075 ft 484 kts 93°
2026-04-26 16:15 38.08317 -32.67860 37087 ft 483 kts 93°
2026-04-26 16:16 38.08058 -32.55079 37096 ft 482 kts 93°
2026-04-26 16:16 38.07880 -32.46629 37094 ft 482 kts 93°
2026-04-26 16:17 38.07694 -32.38118 37091 ft 482 kts 93°
2026-04-26 16:17 38.07502 -32.29626 37103 ft 481 kts 93°
2026-04-26 16:18 38.07203 -32.16887 37101 ft 481 kts 93°
2026-04-26 16:19 38.06891 -32.04146 37103 ft 481 kts 93°
2026-04-26 16:20 38.06565 -31.91429 37105 ft 481 kts 93°
2026-04-26 16:20 38.06226 -31.78748 37106 ft 480 kts 93°
2026-04-26 16:21 38.05993 -31.70291 37104 ft 480 kts 93°
2026-04-26 16:21 38.05753 -31.61838 37099 ft 479 kts 93°
2026-04-26 16:22 38.05508 -31.53391 36892 ft 482 kts 93°
2026-04-26 16:22 38.05381 -31.49122 36481 ft 482 kts 93°
2026-04-26 16:22 38.05255 -31.44885 36001 ft 477 kts 93°
2026-04-26 16:23 38.05128 -31.40697 35528 ft 473 kts 93°
2026-04-26 16:23 38.05002 -31.36554 35034 ft 468 kts 93°
2026-04-26 16:23 38.04875 -31.32453 34564 ft 464 kts 93°
2026-04-26 16:23 38.04747 -31.28379 34087 ft 460 kts 93°
2026-04-26 16:24 38.04619 -31.24328 33546 ft 456 kts 94°
2026-04-26 16:24 38.04491 -31.20327 33045 ft 452 kts 94°
2026-04-26 16:24 38.04362 -31.16351 32555 ft 448 kts 94°
2026-04-26 16:24 38.04234 -31.12419 32084 ft 444 kts 94°
2026-04-26 16:25 38.04105 -31.08532 31623 ft 440 kts 94°
2026-04-26 16:25 38.03976 -31.04664 31150 ft 437 kts 94°
2026-04-26 16:25 38.03847 -31.00826 30702 ft 434 kts 94°
2026-04-26 16:25 38.03717 -30.97016 30257 ft 431 kts 94°
2026-04-26 16:26 38.03587 -30.93235 29746 ft 428 kts 95°
2026-04-26 16:26 38.03501 -30.90737 29397 ft 425 kts 95°
2026-04-26 16:26 38.03327 -30.85751 28774 ft 420 kts 95°
2026-04-26 16:26 38.03197 -30.82059 28314 ft 416 kts 95°
2026-04-26 16:27 38.03067 -30.78412 27858 ft 413 kts 95°
2026-04-26 16:27 38.02937 -30.74789 27414 ft 409 kts 95°
2026-04-26 16:27 38.02807 -30.71207 26976 ft 406 kts 95°
2026-04-26 16:27 38.02677 -30.67642 26530 ft 403 kts 95°
2026-04-26 16:28 38.02547 -30.64109 26097 ft 400 kts 95°
2026-04-26 16:28 38.02416 -30.60601 25669 ft 397 kts 96°
2026-04-26 16:28 38.02287 -30.57157 25246 ft 394 kts 96°
2026-04-26 16:28 38.02157 -30.53694 24811 ft 392 kts 96°
2026-04-26 16:29 38.02024 -30.50205 24377 ft 390 kts 96°
2026-04-26 16:29 38.01894 -30.46818 23949 ft 389 kts 96°
2026-04-26 16:29 38.01762 -30.43399 23478 ft 387 kts 96°
2026-04-26 16:29 38.01630 -30.40007 22997 ft 384 kts 96°
2026-04-26 16:30 38.01498 -30.36636 22555 ft 381 kts 96°
2026-04-26 16:30 38.01366 -30.33297 22132 ft 377 kts 96°
2026-04-26 16:30 38.01235 -30.29994 21717 ft 374 kts 96°
2026-04-26 16:30 38.01147 -30.27783 21440 ft 371 kts 96°
2026-04-26 16:31 38.00974 -30.23477 20900 ft 367 kts 96°
2026-04-26 16:31 38.00843 -30.20257 20501 ft 364 kts 96°
2026-04-26 16:31 38.00756 -30.18133 20228 ft 362 kts 96°
2026-04-26 16:31 38.00626 -30.14956 19841 ft 360 kts 96°
2026-04-26 16:32 38.00496 -30.11800 19443 ft 357 kts 96°
2026-04-26 16:32 38.00365 -30.08663 19038 ft 355 kts 96°
2026-04-26 16:32 38.00235 -30.05546 18641 ft 353 kts 96°
2026-04-26 16:32 38.00169 -30.02441 18186 ft 354 kts 88°
2026-04-26 16:33 38.00829 -29.99433 17756 ft 357 kts 65°
2026-04-26 16:33 38.02284 -29.96897 17373 ft 356 kts 47°
2026-04-26 16:33 38.04021 -29.94676 16994 ft 353 kts 46°
2026-04-26 16:33 38.05774 -29.92506 16588 ft 351 kts 45°
2026-04-26 16:34 38.07521 -29.90351 16209 ft 349 kts 46°
2026-04-26 16:34 38.09248 -29.88207 15814 ft 346 kts 46°
2026-04-26 16:34 38.10958 -29.86068 15431 ft 344 kts 46°
2026-04-26 16:34 38.12655 -29.83932 15053 ft 342 kts 46°
2026-04-26 16:35 38.14337 -29.81805 14678 ft 340 kts 46°
2026-04-26 16:35 38.16001 -29.79694 14308 ft 338 kts 46°
2026-04-26 16:35 38.17661 -29.77583 13943 ft 336 kts 46°
2026-04-26 16:35 38.19315 -29.75477 13517 ft 335 kts 47°
2026-04-26 16:36 38.20954 -29.73389 13122 ft 333 kts 46°
2026-04-26 16:36 38.22582 -29.71311 12749 ft 331 kts 46°
2026-04-26 16:36 38.24200 -29.69245 12373 ft 329 kts 47°
2026-04-26 16:36 38.25809 -29.67189 11995 ft 327 kts 46°
2026-04-26 16:37 38.27394 -29.65163 11627 ft 325 kts 47°
2026-04-26 16:37 38.28981 -29.63132 11267 ft 323 kts 46°
2026-04-26 16:37 38.30562 -29.61107 10917 ft 321 kts 46°
2026-04-26 16:37 38.32128 -29.59102 10566 ft 319 kts 47°
2026-04-26 16:38 38.33689 -29.57100 10282 ft 315 kts 46°
2026-04-26 16:38 38.35208 -29.55152 10115 ft 307 kts 47°
2026-04-26 16:38 38.36713 -29.53221 9736 ft 306 kts 47°
2026-04-26 16:38 38.38205 -29.51303 9391 ft 304 kts 47°
2026-04-26 16:39 38.39694 -29.49390 9042 ft 303 kts 47°
2026-04-26 16:39 38.41169 -29.47493 8705 ft 301 kts 47°
2026-04-26 16:39 38.42640 -29.45600 8374 ft 299 kts 47°
2026-04-26 16:39 38.44100 -29.43719 8043 ft 298 kts 47°
2026-04-26 16:40 38.45552 -29.41848 7711 ft 296 kts 47°
2026-04-26 16:40 38.47001 -29.39980 7381 ft 295 kts 47°
2026-04-26 16:40 38.48442 -29.38121 7055 ft 294 kts 47°
2026-04-26 16:40 38.49876 -29.36270 6734 ft 293 kts 48°
2026-04-26 16:41 38.51307 -29.34422 6394 ft 292 kts 48°
2026-04-26 16:41 38.52736 -29.32575 6050 ft 291 kts 47°
2026-04-26 16:41 38.54158 -29.30736 5708 ft 291 kts 48°
2026-04-26 16:41 38.55582 -29.28893 5383 ft 290 kts 48°
2026-04-26 16:42 38.56975 -29.27089 5054 ft 289 kts 48°
2026-04-26 16:42 38.58383 -29.25265 4711 ft 288 kts 48°
2026-04-26 16:42 38.59787 -29.23444 4375 ft 287 kts 48°
2026-04-26 16:42 38.61183 -29.21634 4048 ft 285 kts 48°
2026-04-26 16:43 38.62571 -29.19833 3727 ft 284 kts 48°
2026-04-26 16:43 38.63954 -29.18037 3409 ft 283 kts 49°
2026-04-26 16:43 38.65333 -29.16246 3102 ft 282 kts 49°
2026-04-26 16:43 38.66696 -29.14447 2751 ft 281 kts 54°
2026-04-26 16:44 38.67558 -29.12287 2422 ft 268 kts 85°
2026-04-26 16:44 38.67491 -29.10022 2279 ft 243 kts 111°
2026-04-26 16:44 38.66823 -29.08116 2276 ft 230 kts 128°
2026-04-26 16:44 38.65777 -29.06617 2269 ft 225 kts 145°
2026-04-26 16:45 38.64500 -29.05439 2286 ft 228 kts 149°
2026-04-26 16:45 38.63181 -29.04293 2293 ft 230 kts 149°
2026-04-26 16:45 38.61857 -29.03137 2281 ft 230 kts 148°
2026-04-26 16:45 38.60540 -29.01979 2290 ft 230 kts 148°
2026-04-26 16:46 38.59225 -29.00819 2292 ft 226 kts 148°
2026-04-26 16:46 38.57924 -28.99667 1846 ft 233 kts 147°
2026-04-26 16:46 38.56610 -28.98497 1666 ft 227 kts 147°
2026-04-26 16:46 38.55375 -28.97318 1524 ft 216 kts 142°
2026-04-26 16:47 38.54351 -28.96002 1487 ft 203 kts 134°
2026-04-26 16:47 38.53521 -28.94574 1486 ft 199 kts 126°
2026-04-26 16:47 38.52856 -28.93026 1500 ft 198 kts 120°
2026-04-26 16:47 38.52340 -28.91431 1495 ft 189 kts 112°
2026-04-26 16:48 38.52054 -28.89862 1482 ft 174 kts 103°
2026-04-26 16:48 38.51939 -28.88351 1490 ft 170 kts 98°
2026-04-26 16:48 38.51907 -28.86866 1477 ft 170 kts 95°
2026-04-26 16:48 38.51916 -28.85343 1492 ft 172 kts 95°
2026-04-26 16:49 38.51926 -28.83816 1493 ft 172 kts 95°
2026-04-26 16:49 38.51935 -28.82287 1516 ft 171 kts 95°
2026-04-26 16:49 38.51946 -28.80779 1507 ft 168 kts 96°
2026-04-26 16:49 38.51955 -28.79295 1487 ft 168 kts 96°
2026-04-26 16:50 38.51961 -28.77789 1519 ft 172 kts 95°
2026-04-26 16:50 38.51968 -28.76252 1507 ft 172 kts 95°
2026-04-26 16:50 38.51975 -28.74739 1490 ft 168 kts 95°
2026-04-26 16:50 38.51981 -28.73251 1483 ft 168 kts 95°
2026-04-26 16:51 38.51970 -28.71653 1106 ft 183 kts 98°
2026-04-26 16:51 38.51495 -28.70293 1198 ft 164 kts 145°
2026-04-26 16:51 38.50432 -28.69961 1183 ft 161 kts 192°
2026-04-26 16:51 38.49568 -28.70783 1552 ft 162 kts 233°
2026-04-26 16:52 38.49323 -28.72311 1742 ft 184 kts 264°
2026-04-26 16:52 38.49411 -28.73390 1831 ft 183 kts 273°
2026-04-26 16:52 38.49561 -28.75546 1952 ft 183 kts 269°
2026-04-26 16:52 38.49646 -28.77150 2005 ft 181 kts 266°
2026-04-26 16:53 38.49742 -28.78761 2064 ft 182 kts 268°
2026-04-26 16:53 38.49816 -28.80382 1990 ft 186 kts 265°
2026-04-26 16:53 38.49803 -28.81980 1809 ft 177 kts 262°
2026-04-26 16:53 38.50013 -28.83512 1697 ft 177 kts 295°
2026-04-26 16:54 38.50969 -28.84500 1579 ft 185 kts 345°
2026-04-26 16:54 38.52197 -28.84262 1380 ft 180 kts 37°
2026-04-26 16:54 38.52815 -28.83026 1142 ft 165 kts 87°
2026-04-26 16:54 38.52782 -28.81614 1067 ft 154 kts 105°
2026-04-26 16:55 38.52536 -28.80337 1058 ft 145 kts 111°
2026-04-26 16:55 38.52251 -28.79108 961 ft 143 kts 108°
2026-04-26 16:55 38.52089 -28.77861 836 ft 144 kts 101°
2026-04-26 16:55 38.51970 -28.76555 642 ft 150 kts 95°
2026-04-26 16:56 38.51988 -28.73997 286 ft 139 kts 91°
2026-04-26 16:56 38.51993 -28.72772 143 ft 135 kts 94°
2026-04-26 16:56 38.51983 -28.71588 96 ft 120 kts 86°
2026-04-26 16:57 38.51993 -28.71110 98 ft 28 kts 90°
2026-04-26 16:57 38.52001 -28.70824 99 ft 34 kts 87°
2026-04-26 16:57 38.51971 -28.70712 102 ft 16 kts 267°
2026-04-26 16:58 38.51993 -28.70929 98 ft 33 kts 270°
2026-04-26 16:58 38.51992 -28.71136 100 ft 36 kts 269°
2026-04-26 16:58 38.52103 -28.71512 95 ft 8 kts 296°
2026-04-26 16:59 38.52093 -28.71565 96 ft 5 kts 223°
2026-04-26 16:59 38.52092 -28.71566 96 ft 0 kts 223°
2026-04-26 17:00 38.52089 -28.71559 94 ft 0 kts 167°